User: anonymous   Login
Location: Los Gatos B&B
(42.6926°N, 77.0646°W)
Time: 12:27:38
(UTC-05:00)
Language:

Cosmos 2263 Rocket - Orbit

View from above orbital plane
View from above orbital plane
View from above satellite
View from above satellite

Ground track
Ground track

The orbit data is extracted from the following two-line orbital elements,

1 22803U 93059B   17023.48685885  .00000053  00000-0  50215-4 0  9991
2 22803  70.9888 194.3501 0019419 248.8769 111.0279 14.16764213207788
Epoch (UTC): 23 January 2017 11:41:04
Eccentricity: 0.0019419
inclination: 70.9888°
perigee height: 822 km
apogee height: 850 km
right ascension of ascending node: 194.3501°
argument of perigee: 248.8769°
revolutions per day: 14.16764213
mean anomaly at epoch: 111.0279°
orbit number at epoch: 20778

The dashed part of the orbit path shows where the satellite is in the earth's shadow,  

DLR